Location: Izdebno
(52.6670°N, 16.2170°E)
Time: 03:30:18
(UTC+02:00)

Transit 2A - Pass Details

Date: 25 February 2024
Orbit: 596 x 956 km, 66.7° (Epoch: 21 April)

Event Time Altitude Azimuth Distance (km) Brightness Sun altitude
Rises 19:05:28 0° 186° (S) 2,854 9.0 -15.9°
Reaches altitude 10° 19:07:56 10° 175° (S) 1,937 8.0 -16.2°
Enters shadow 19:11:06 28° 129° (SE) 1,144 6.4 -16.7°
Maximum altitude 19:11:37 28° 116° (ESE) 1,123 - -16.8°
Drops below altitude 10° 19:15:21 10° 57° (ENE) 1,958 - -17.4°
Sets 19:17:52 0° 46° (NE) 2,891 - -17.7°
